This is the latest recevied weather packets stored in our database for station/object 4S6DRJ-13. If no packets are shown the sender has not sent any weather packets the latest 10 day(s).
| Time | Temp. | Humidity | Pressure | Rain* | Wind** | Luminosity | Snow |
|---|---|---|---|---|---|---|---|
| 1788434798 | 29.44° C | 76% | 1007.4 hPa | 0 mm | 0.89 m/s, 211° | 148 W/m² | - |
| 1788434737 | 29.44° C | 76% | 1007.3 hPa | 0 mm | 1.34 m/s, 251° | 150 W/m² | - |
| 1788434676 | 29.44° C | 76% | 1007.2 hPa | 0 mm | 0.89 m/s, 10° | 147 W/m² | - |
| 1788434615 | 29.44° C | 77% | 1007.3 hPa | 0 mm | 1.79 m/s, 249° | 140 W/m² | - |
| 1788434554 | 29.44° C | 77% | 1007.3 hPa | 0 mm | 0.89 m/s, 183° | 145 W/m² | - |
| 1788434493 | 29.44° C | 76% | 1007.3 hPa | 0 mm | 0.89 m/s, 215° | 149 W/m² | - |
| 1788434433 | 29.44° C | 77% | 1007.2 hPa | 0 mm | 1.79 m/s, 0° | 144 W/m² | - |
| 1788434372 | 29.44° C | 77% | 1007.1 hPa | 0 mm | 0.89 m/s, 241° | 152 W/m² | - |
| 1788434311 | 29.44° C | 77% | 1007.2 hPa | 0 mm | 2.24 m/s, 217° | 164 W/m² | - |
| 1788434250 | 29.44° C | 77% | 1007.2 hPa | 0 mm | 2.24 m/s, 121° | 149 W/m² | - |
| 1788434189 | 29.44° C | 77% | 1007.3 hPa | 0 mm | 0.89 m/s, 265° | 138 W/m² | - |
| 1788434128 | 29.44° C | 77% | 1007.3 hPa | 0 mm | 0.89 m/s, 218° | 136 W/m² | - |
| 1788434067 | 29.44° C | 77% | 1007.2 hPa | 0 mm | 1.34 m/s, 320° | 138 W/m² | - |
| 1788434006 | 29.44° C | 77% | 1007.3 hPa | 0 mm | 0.89 m/s, 293° | 144 W/m² | - |
| 1788433945 | 29.44° C | 77% | 1007.4 hPa | 0 mm | 1.34 m/s, 308° | 156 W/m² | - |
| 1788433885 | 29.44° C | 77% | 1007.3 hPa | 0 mm | 2.24 m/s, 268° | 154 W/m² | - |
| 1788433823 | 29.44° C | 77% | 1007.4 hPa | 0 mm | 1.34 m/s, 259° | 159 W/m² | - |
| 1788433762 | 29.44° C | 76% | 1007.3 hPa | 0 mm | 2.24 m/s, 149° | 165 W/m² | - |
| 1788433701 | 29.44° C | 77% | 1007.2 hPa | 0 mm | 1.79 m/s, 318° | 167 W/m² | - |
| 1788433640 | 29.44° C | 76% | 1007.3 hPa | 0 mm | 1.79 m/s, 307° | 170 W/m² | - |
| 1788433579 | 29.44° C | 77% | 1007.3 hPa | 0 mm | 1.34 m/s, 236° | 177 W/m² | - |
| 1788433518 | 29.44° C | 77% | 1007.3 hPa | 0 mm | 0.45 m/s, 351° | 178 W/m² | - |
| 1788433457 | 29.44° C | 77% | 1007.2 hPa | 0 mm | 0.89 m/s, 163° | 174 W/m² | - |
| 1788433396 | 29.44° C | 77% | 1007.3 hPa | 0 mm | 2.24 m/s, 213° | 178 W/m² | - |
| 1788433335 | 29.44° C | 76% | 1007.3 hPa | 0 mm | 2.24 m/s, 207° | 178 W/m² | - |
* Rain latest hour (hover to see other rain measurements)
** Current wind speed in m/s (hover to see current wind gust speed)